Flag for Norway Weather past 2 weeks in Ny-Ålesund, Svalbard, Norway

Now
36 °F

Chilly.


Feels Like: 29 °F
Forecast: 18 / 29 °F
Wind: 8 mph from Southeast

Location: Ny Alesund

Current Time: Sep 1, 2015 at 12:30:49 AM

Latest Report: Aug 31, 2015 at 10:00 PM


Visibility: N/A

Pressure: 29.89 "Hg

Humidity: 61%

Dew point: 23 °F

Location of Ny-ÅlesundLocation

Historic Weather in Ny-Ålesund — Graph

°F

Ny-Ålesund temperature yesterday

Maximum temperature yesterday: 40 °F (at 1:00 AM)
Minimum temperature yesterday: 36 °F (at 10:00 PM)
Average temperature yesterday: 39 °F

Past Weeks' High & Low Weather Summary

 TemperatureHumidityPressure
High48 °F (Aug 16, 10:00 PM)91% (Aug 26, 7:00 AM)30.34 "Hg (Aug 26, 7:00 AM)
Low31 °F (Aug 28, 5:00 AM)57% (Aug 30, 12:00 PM)29.73 "Hg (Aug 31, 4:00 AM)
Average40 °F77%29.99 "Hg
* Reported Aug 16 10:00 PM — Aug 31 10:00 PM, Ny-Ålesund, Weather by CustomWeather, © 2015

Note: Actual official high and low records may vary slightly from our data, if they occured in-between our weather recording intervals... More about our weather records

Advertising

Ny-Ålesund weather history for previous 24 hours

 ConditionsComfort  
Time TempWeatherWind HumidityBarometerVisibility
10:00 PM
Mon, Aug 31
36 °FChilly.8 mph61%29.89 "HgN/A
9:00 PM38 °FChilly.6 mph59%29.88 "HgN/A
8:00 PM39 °FPartly sunny.6 mph61%29.86 "Hg47 mi
7:00 PM39 °FChilly.7 mph60%29.85 "HgN/A
6:00 PM40 °FChilly.7 mph62%29.83 "HgN/A
5:00 PM40 °FChilly.7 mph62%29.83 "HgN/A
4:00 PM40 °FChilly.8 mph60%29.81 "HgN/A
3:00 PM40 °FChilly.7 mph63%29.80 "HgN/A
2:00 PM40 °FOvercast.5 mph63%29.80 "Hg47 mi
1:00 PM40 °FChilly.6 mph64%29.79 "HgN/A
12:00 PM40 °FChilly.5 mph65%29.78 "HgN/A
11:00 AM40 °FChilly.6 mph65%29.76 "HgN/A
10:00 AM40 °FChilly.3 mph65%29.76 "HgN/A
9:00 AM40 °FChilly.1 mph65%29.75 "HgN/A
8:00 AM38 °FOvercast.2 mph71%29.74 "Hg47 mi
7:00 AM39 °FChilly.5 mph64%29.73 "HgN/A
6:00 AM39 °FChilly.3 mph64%29.74 "HgN/A
5:00 AM39 °FChilly.7 mph65%29.73 "HgN/A
4:00 AM39 °FChilly.5 mph65%29.73 "HgN/A
3:00 AM39 °FChilly.5 mph67%29.74 "HgN/A
2:00 AM39 °FChilly.5 mph68%29.73 "HgN/A
1:00 AM40 °FChilly.7 mph64%29.73 "HgN/A
12:00 AM39 °FChilly.3 mph67%29.74 "HgN/A
Weather by CustomWeather, © 2015

See weather overviewHow to use our weather pages